Meteo Giornale » Osservazioni meteo Rwanda » Kigali

ore: 08:30 - Osservazioni Meteo Kigali
Lat. 1° 58' S Lon. 30° 7' E Alt. 1491 metri s.l.m.

sereno

23 °C

Sereno

Temp. 24 Ore

20 °C

30 °C

Sud/Sud-Est

13 Km/h

Dew point 10 °C

Umidità 43 %

Visibilità  10 Km

Il sole sorge alle ore 05:56

Il sole tramonta alle ore 18:01

Data e Ora Cielo e Fenomeni T °C DP °C Um. % Pres. hPa Vis. km Vento km/h
Oggi h: 08:30 sereno Sereno 23 10 43 1025 10 S/SE 13
Oggi h: 08:00 sereno Sereno 22 10 46 1025 10 S 13
Oggi h: 07:30 sereno Sereno 21 11 52 1024 10 N 5.5
Oggi h: 07:00 poco_nuvoloso Poco Nuvoloso 21 10 49 1023 10 S/SE 7.4
Oggi h: 06:30 poco_nuvoloso Poco Nuvoloso 20 9 49 1023 10 N 5.5
Oggi h: 06:00 poco_nuvoloso Poco Nuvoloso 20 10 52 1023 10 S/SE 7.4
Oggi h: 05:30 poco_nuvoloso Poco Nuvoloso 20 10 52 1022 10 SE 7.4
Oggi h: 05:00 poco_nuvoloso Poco Nuvoloso 21 10 49 1022 10 E/SE 9.3
Oggi h: 04:30 poco_nuvoloso Poco Nuvoloso 21 10 49 1022 10 E 9.3
Oggi h: 04:00 poco_nuvoloso Poco Nuvoloso 20 10 52 1021 10 E 9.3
Oggi h: 03:30 poco_nuvoloso Poco Nuvoloso 21 10 49 1021 10 N 0
Oggi h: 03:00 poco_nuvoloso Poco Nuvoloso 21 10 49 1021 10 N 3.7
Oggi h: 02:30 poco_nuvoloso Poco Nuvoloso 22 10 46 1021 10 S 7.4
Oggi h: 02:00 poco_nuvoloso Poco Nuvoloso 21 10 49 1021 10 N 5.5
Oggi h: 01:30 poco_nuvoloso Poco Nuvoloso 23 10 43 1021 10 N 3.7
Oggi h: 01:00 poco_nuvoloso Poco Nuvoloso 23 10 43 1021 10 N 3.7
Oggi h: 00:30 poco_nuvoloso Poco Nuvoloso 24 10 41 1022 10 N 3.7
Oggi h: 00:00 poco_nuvoloso Poco Nuvoloso 24 10 41 1022 10 N 0
Ieri h: 23:30 nuvoloso Nuvoloso 24 10 41 1022 10 N 0
Ieri h: 23:00 nuvoloso Nuvoloso 25 10 38 1022 10 N 5.5
Ieri h: 22:30 poco_nuvoloso Poco Nuvoloso 25 9 36 1022 10 NE 7.4
Ieri h: 22:00 poco_nuvoloso Poco Nuvoloso 24 9 38 1022 10 E 9.3
Ieri h: 21:30 poco_nuvoloso Poco Nuvoloso 25 9 36 1021 10 N 5.5
Ieri h: 21:00 poco_nuvoloso Poco Nuvoloso 25 9 36 1021 10 E 9.3
Ieri h: 20:30 poco_nuvoloso Poco Nuvoloso 25 9 36 1021 10 E 9.3
Ieri h: 20:00 poco_nuvoloso Poco Nuvoloso 26 9 34 1020 10 E 11.1
Ieri h: 19:30 nuvoloso Nuvoloso 26 9 34 1020 10 E 11.1
Ieri h: 19:00 nuvoloso Nuvoloso 27 9 32 1020 10 SE 7.4
Ieri h: 18:30 nuvoloso Nuvoloso 28 9 30 1020 10 S 7.4
Ieri h: 18:00 nuvoloso Nuvoloso 28 9 30 1019 10 SE 9.3
Ieri h: 17:30 nuvoloso Nuvoloso 29 9 28 1019 10 S 14.8
Ieri h: 17:00 nuvoloso Nuvoloso 29 9 28 1019 10 S 14.8
Ieri h: 16:30 nuvoloso Nuvoloso 29 9 28 1019 10 S/SE 14.8
Ieri h: 16:00 nuvoloso Nuvoloso 29 9 28 1019 10 S/SE 18.5
Ieri h: 15:30 nuvoloso Nuvoloso 30 9 27 1019 10 SE 14.8
Ieri h: 15:00 nuvoloso Nuvoloso 30 9 27 1020 10 S/SE 13
Ieri h: 14:30 nuvoloso Nuvoloso 29 9 28 1020 10 S/SE 20.3
Ieri h: 14:00 molto_nuvoloso Molto Nuvoloso 29 9 28 1021 10 SE 14.8
Ieri h: 13:30 molto_nuvoloso Molto Nuvoloso 29 10 30 1021 10 S 18.5
Ieri h: 13:00 nuvoloso Nuvoloso 28 10 32 1021 10 S 16.7
Ieri h: 12:30 nuvoloso Nuvoloso 28 10 32 1022 10 S 14.8
Ieri h: 12:00 nuvoloso Nuvoloso 27 10 34 1023 10 S 18.5
Ieri h: 11:30 nuvoloso Nuvoloso 27 10 34 1023 10 S 18.5
Ieri h: 11:00 nuvoloso Nuvoloso 26 11 39 1024 10 S 11.1
Ieri h: 10:30 poco_nuvoloso Poco Nuvoloso 25 10 38 1024 10 S 14.8
Ieri h: 10:00 poco_nuvoloso Poco Nuvoloso 25 10 38 1024 10 S 22.2